Time,TemperatureF,DewpointF,PressureIn,WindDirection,WindDirectionDegrees,WindSpeedMPH,WindSpeedGustMPH,Humidity,HourlyPrecipIn,Conditions,Clouds,dailyrainin,SoftwareType,DateUTC
2013-04-04 00:02:00,48.0,29.0,30.14,WSW,239,1.0,4.0,46,0.00,,,-99.99,,2013-04-04 06:02:00,
2013-04-04 00:12:00,48.0,29.0,30.14,West,263,3.0,3.0,48,0.00,,,-99.99,,2013-04-04 06:12:00,
2013-04-04 00:22:00,47.0,30.0,30.13,SSE,160,3.0,3.0,51,0.00,,,-99.99,,2013-04-04 06:22:00,
2013-04-04 00:32:00,48.0,30.0,30.13,SSE,162,5.0,5.0,49,0.00,,,-99.99,,2013-04-04 06:32:00,
2013-04-04 00:42:00,47.0,29.0,30.13,SSW,202,4.0,6.0,49,0.00,,,-99.99,,2013-04-04 06:42:00,
2013-04-04 00:52:00,45.0,30.0,30.13,South,182,3.0,5.0,52,0.00,,,-99.99,,2013-04-04 06:52:00,
2013-04-04 01:02:00,45.0,29.0,30.13,SSE,165,3.0,4.0,54,0.00,,,-99.99,,2013-04-04 07:02:00,
2013-04-04 01:12:00,45.0,29.0,30.14,SSE,165,3.0,5.0,52,0.00,,,-99.99,,2013-04-04 07:12:00,
2013-04-04 01:22:00,46.0,29.0,30.14,SSE,159,6.0,9.0,53,0.00,,,-99.99,,2013-04-04 07:22:00,
2013-04-04 01:32:00,45.0,30.0,30.14,SSE,168,5.0,7.0,54,0.00,,,-99.99,,2013-04-04 07:32:00,
2013-04-04 01:42:00,45.0,30.0,30.14,South,178,4.0,7.0,56,0.00,,,-99.99,,2013-04-04 07:42:00,
2013-04-04 01:52:00,45.0,29.0,30.14,SSE,166,4.0,7.0,54,0.00,,,-99.99,,2013-04-04 07:52:00,
2013-04-04 02:02:00,45.0,29.0,30.14,South,179,5.0,7.0,54,0.00,,,-99.99,,2013-04-04 08:02:00,
2013-04-04 02:12:00,45.0,29.0,30.14,South,170,5.0,7.0,54,0.00,,,-99.99,,2013-04-04 08:12:00,
2013-04-04 02:22:00,45.0,29.0,30.14,SSW,194,5.0,6.0,53,0.00,,,-99.99,,2013-04-04 08:22:00,
2013-04-04 02:32:00,45.0,28.0,30.14,SSE,153,4.0,6.0,52,0.00,,,-99.99,,2013-04-04 08:32:00,
2013-04-04 02:42:00,44.0,27.0,30.14,SSE,166,5.0,8.0,51,0.00,,,-99.99,,2013-04-04 08:42:00,
2013-04-04 02:52:00,44.0,28.0,30.14,South,181,6.0,8.0,52,0.00,,,-99.99,,2013-04-04 08:52:00,
2013-04-04 03:02:00,43.0,28.0,30.13,South,169,6.0,11.0,53,0.00,,,-99.99,,2013-04-04 09:02:00,
2013-04-04 03:12:00,43.0,28.0,30.14,SE,146,4.0,9.0,54,0.00,,,-99.99,,2013-04-04 09:12:00,
2013-04-04 03:22:00,41.0,28.0,30.14,ESE,116,9.0,9.0,60,0.00,,,-99.99,,2013-04-04 09:22:00,
2013-04-04 03:33:00,42.0,28.0,30.14,SE,137,5.0,9.0,57,0.00,,,-99.99,,2013-04-04 09:33:00,
2013-04-04 03:43:00,42.0,28.0,30.14,SSE,157,5.0,8.0,57,0.00,,,-99.99,,2013-04-04 09:43:00,
2013-04-04 03:53:00,41.0,28.0,30.14,SSE,158,3.0,7.0,59,0.00,,,-99.99,,2013-04-04 09:53:00,
2013-04-04 04:03:00,41.0,28.0,30.14,South,191,3.0,5.0,59,0.00,,,-99.99,,2013-04-04 10:03:00,
2013-04-04 04:12:00,41.0,29.0,30.14,South,177,4.0,5.0,60,0.00,,,-99.99,,2013-04-04 10:12:00,
2013-04-04 04:23:00,40.0,28.0,30.15,SSE,150,1.0,5.0,61,0.00,,,-99.99,,2013-04-04 10:23:00,
2013-04-04 04:33:00,40.0,28.0,30.15,NNW,330,2.0,4.0,63,0.00,,,-99.99,,2013-04-04 10:33:00,
2013-04-04 04:42:00,39.0,28.0,30.17,SE,132,2.0,3.0,66,0.00,,,-99.99,,2013-04-04 10:42:00,
2013-04-04 04:53:00,40.0,29.0,30.15,SE,141,2.0,3.0,65,0.00,,,-99.99,,2013-04-04 10:53:00,
2013-04-04 05:02:00,39.0,29.0,30.15,SSE,162,3.0,5.0,65,0.00,,,-99.99,,2013-04-04 11:02:00,
2013-04-04 05:12:00,40.0,28.0,30.15,SSE,167,5.0,7.0,63,0.00,,,-99.99,,2013-04-04 11:12:00,
2013-04-04 05:22:00,39.0,29.0,30.15,South,172,6.0,7.0,65,0.00,,,-99.99,,2013-04-04 11:22:00,
2013-04-04 05:32:00,39.0,29.0,30.15,SSE,162,3.0,6.0,66,0.00,,,-99.99,,2013-04-04 11:32:00,
2013-04-04 05:42:00,38.0,29.0,30.15,SSE,147,4.0,6.0,67,0.00,,,-99.99,,2013-04-04 11:42:00,
2013-04-04 05:53:00,39.0,28.0,30.15,South,189,3.0,5.0,66,0.00,,,-99.99,,2013-04-04 11:53:00,
2013-04-04 06:02:00,39.0,29.0,30.15,South,169,4.0,5.0,65,0.00,,,-99.99,,2013-04-04 12:02:00,
2013-04-04 06:12:00,39.0,28.0,30.17,SSW,211,3.0,5.0,64,0.00,,,-99.99,,2013-04-04 12:12:00,
2013-04-04 06:22:00,39.0,28.0,30.17,SSW,195,4.0,6.0,64,0.00,,,-99.99,,2013-04-04 12:22:00,
2013-04-04 06:32:00,39.0,28.0,30.17,South,189,6.0,7.0,63,0.00,,,-99.99,,2013-04-04 12:32:00,
2013-04-04 06:42:00,39.0,27.0,30.17,South,185,7.0,9.0,61,0.00,,,-99.99,,2013-04-04 12:42:00,
2013-04-04 06:52:00,39.0,27.0,30.17,South,179,8.0,8.0,61,0.00,,,-99.99,,2013-04-04 12:52:00,
2013-04-04 07:02:00,39.0,27.0,30.17,South,187,6.0,9.0,61,0.00,,,-99.99,,2013-04-04 13:02:00,
2013-04-04 07:12:00,39.0,27.0,30.17,South,177,9.0,10.0,60,0.00,,,-99.99,,2013-04-04 13:12:00,
2013-04-04 07:22:00,40.0,27.0,30.17,South,180,8.0,9.0,60,0.00,,,-99.99,,2013-04-04 13:22:00,
2013-04-04 07:32:00,40.0,26.0,30.17,South,181,5.0,10.0,58,0.00,,,-99.99,,2013-04-04 13:32:00,
2013-04-04 07:52:00,41.0,26.0,30.17,SSW,197,5.0,10.0,55,0.00,,,-99.99,,2013-04-04 13:52:00,
2013-04-04 08:03:00,42.0,26.0,30.17,South,188,3.0,11.0,55,0.00,,,-99.99,,2013-04-04 14:03:00,
2013-04-04 08:12:00,43.0,27.0,30.17,South,179,8.0,8.0,53,0.00,,,-99.99,,2013-04-04 14:12:00,
2013-04-04 08:22:00,44.0,26.0,30.17,South,175,6.0,10.0,50,0.00,,,-99.99,,2013-04-04 14:22:00,
2013-04-04 08:32:00,45.0,26.0,30.17,South,174,7.0,10.0,49,0.00,,,-99.99,,2013-04-04 14:32:00,
2013-04-04 08:42:00,46.0,26.0,30.17,South,172,8.0,8.0,47,0.00,,,-99.99,,2013-04-04 14:42:00,
2013-04-04 08:52:00,47.0,26.0,30.17,South,174,5.0,8.0,45,0.00,,,-99.99,,2013-04-04 14:52:00,
2013-04-04 09:02:00,48.0,27.0,30.17,SSW,194,3.0,6.0,43,0.00,,,-99.99,,2013-04-04 15:02:00,
2013-04-04 09:12:00,50.0,26.0,30.17,SSE,167,3.0,6.0,40,0.00,,,-99.99,,2013-04-04 15:12:00,
2013-04-04 09:22:00,51.0,26.0,30.17,SSE,147,1.0,6.0,39,0.00,,,-99.99,,2013-04-04 15:22:00,
2013-04-04 09:33:00,52.0,26.0,30.17,SE,144,5.0,6.0,38,0.00,,,-99.99,,2013-04-04 15:33:00,
2013-04-04 09:43:00,53.0,27.0,30.15,South,189,4.0,5.0,37,0.00,,,-99.99,,2013-04-04 15:43:00,
2013-04-04 09:53:00,53.0,27.0,30.15,ESE,116,2.0,6.0,36,0.00,,,-99.99,,2013-04-04 15:53:00,
2013-04-04 10:03:00,54.0,27.0,30.15,SSE,154,4.0,9.0,36,0.00,,,-99.99,,2013-04-04 16:03:00,
2013-04-04 10:12:00,55.0,28.0,30.15,SSE,156,6.0,8.0,36,0.00,,,-99.99,,2013-04-04 16:12:00,
2013-04-04 10:23:00,56.0,28.0,30.15,SSE,147,5.0,9.0,35,0.00,,,-99.99,,2013-04-04 16:23:00,
2013-04-04 10:32:00,56.0,28.0,30.15,SSE,147,5.0,10.0,34,0.00,,,-99.99,,2013-04-04 16:32:00,
2013-04-04 10:42:00,57.0,28.0,30.15,ESE,115,5.0,9.0,32,0.00,,,-99.99,,2013-04-04 16:42:00,
2013-04-04 10:53:00,59.0,27.0,30.14,ESE,115,5.0,9.0,30,0.00,,,-99.99,,2013-04-04 16:53:00,
2013-04-04 11:02:00,59.0,27.0,30.14,East,86,6.0,9.0,28,0.00,,,-99.99,,2013-04-04 17:02:00,
2013-04-04 11:13:00,59.0,26.0,30.14,East,96,2.0,9.0,28,0.00,,,-99.99,,2013-04-04 17:13:00,
2013-04-04 11:22:00,61.0,26.0,30.14,NE,44,5.0,9.0,27,0.00,,,-99.99,,2013-04-04 17:22:00,
2013-04-04 11:33:00,61.0,24.0,30.14,ESE,104,3.0,11.0,24,0.00,,,-99.99,,2013-04-04 17:33:00,
2013-04-04 11:42:00,62.0,24.0,30.13,ESE,118,3.0,8.0,23,0.00,,,-99.99,,2013-04-04 17:42:00,
2013-04-04 11:52:00,64.0,25.0,30.13,ENE,65,3.0,6.0,23,0.00,,,-99.99,,2013-04-04 17:52:00,
2013-04-04 12:02:00,62.0,23.0,30.13,SW,220,2.0,10.0,22,0.00,,,-99.99,,2013-04-04 18:02:00,
2013-04-04 12:12:00,64.0,25.0,30.13,ESE,106,8.0,8.0,22,0.00,,,-99.99,,2013-04-04 18:12:00,
2013-04-04 12:22:00,63.0,24.0,30.13,ENE,78,5.0,13.0,23,0.00,,,-99.99,,2013-04-04 18:22:00,
2013-04-04 12:32:00,63.0,25.0,30.12,East,90,5.0,13.0,23,0.00,,,-99.99,,2013-04-04 18:32:00,
2013-04-04 12:42:00,63.0,23.0,30.12,ESE,119,3.0,9.0,21,0.00,,,-99.99,,2013-04-04 18:42:00,
2013-04-04 12:52:00,64.0,24.0,30.11,ESE,104,9.0,10.0,22,0.00,,,-99.99,,2013-04-04 18:52:00,
2013-04-04 13:02:00,65.0,23.0,30.11,SE,145,4.0,9.0,21,0.00,,,-99.99,,2013-04-04 19:02:00,
2013-04-04 13:12:00,66.0,23.0,30.11,NE,39,7.0,8.0,20,0.00,,,-99.99,,2013-04-04 19:12:00,
2013-04-04 13:22:00,67.0,24.0,30.10,NE,51,11.0,12.0,20,0.00,,,-99.99,,2013-04-04 19:22:00,
2013-04-04 13:32:00,65.0,23.0,30.10,ENE,58,4.0,11.0,20,0.00,,,-99.99,,2013-04-04 19:32:00,
2013-04-04 13:42:00,65.0,22.0,30.10,SSE,160,1.0,7.0,20,0.00,,,-99.99,,2013-04-04 19:42:00,
2013-04-04 13:52:00,66.0,24.0,30.08,ENE,63,9.0,9.0,21,0.00,,,-99.99,,2013-04-04 19:52:00,
2013-04-04 14:03:00,66.0,24.0,30.07,NNE,25,7.0,12.0,20,0.00,,,-99.99,,2013-04-04 20:03:00,
2013-04-04 14:12:00,65.0,23.0,30.07,East,94,10.0,14.0,20,0.00,,,-99.99,,2013-04-04 20:12:00,
2013-04-04 14:22:00,67.0,23.0,30.07,ENE,60,7.0,13.0,19,0.00,,,-99.99,,2013-04-04 20:22:00,
2013-04-04 14:32:00,66.0,23.0,30.07,ENE,74,10.0,13.0,19,0.00,,,-99.99,,2013-04-04 20:32:00,
2013-04-04 14:42:00,66.0,22.0,30.06,NNW,336,7.0,11.0,19,0.00,,,-99.99,,2013-04-04 20:42:00,
2013-04-04 14:52:00,67.0,22.0,30.06,East,94,4.0,10.0,18,0.00,,,-99.99,,2013-04-04 20:52:00,
2013-04-04 15:02:00,67.0,21.0,30.06,SE,134,3.0,13.0,18,0.00,,,-99.99,,2013-04-04 21:02:00,
2013-04-04 15:12:00,68.0,22.0,30.06,NW,325,3.0,9.0,18,0.00,,,-99.99,,2013-04-04 21:12:00,
2013-04-04 15:22:00,67.0,22.0,30.05,ENE,61,6.0,12.0,17,0.00,,,-99.99,,2013-04-04 21:22:00,
2013-04-04 15:32:00,67.0,23.0,30.05,ENE,70,8.0,11.0,19,0.00,,,-99.99,,2013-04-04 21:32:00,
2013-04-04 15:43:00,67.0,24.0,30.04,East,88,12.0,14.0,19,0.00,,,-99.99,,2013-04-04 21:43:00,
2013-04-04 15:52:00,67.0,23.0,30.04,East,89,13.0,17.0,19,0.00,,,-99.99,,2013-04-04 21:52:00,
2013-04-04 16:03:00,67.0,23.0,30.03,NE,51,11.0,15.0,19,0.00,,,-99.99,,2013-04-04 22:03:00,
2013-04-04 16:12:00,67.0,23.0,30.03,NE,42,11.0,18.0,19,0.00,,,-99.99,,2013-04-04 22:12:00,
2013-04-04 16:23:00,67.0,23.0,30.03,ENE,60,9.0,15.0,18,0.00,,,-99.99,,2013-04-04 22:23:00,
2013-04-04 16:33:00,68.0,22.0,30.03,NE,51,4.0,13.0,18,0.00,,,-99.99,,2013-04-04 22:33:00,
2013-04-04 16:42:00,68.0,22.0,30.01,East,89,8.0,15.0,18,0.00,,,-99.99,,2013-04-04 22:42:00,
2013-04-04 16:52:00,68.0,22.0,30.01,NE,56,14.0,16.0,18,0.00,,,-99.99,,2013-04-04 22:52:00,
2013-04-04 17:02:00,68.0,23.0,30.03,East,89,8.0,13.0,18,0.00,,,-99.99,,2013-04-04 23:02:00,
2013-04-04 17:12:00,68.0,21.0,30.01,ESE,122,5.0,13.0,17,0.00,,,-99.99,,2013-04-04 23:12:00,
2013-04-04 17:22:00,67.0,23.0,30.01,ENE,72,10.0,11.0,19,0.00,,,-99.99,,2013-04-04 23:22:00,
2013-04-04 17:32:00,67.0,23.0,30.01,East,94,8.0,17.0,18,0.00,,,-99.99,,2013-04-04 23:32:00,
2013-04-04 17:42:00,67.0,23.0,30.01,East,90,15.0,16.0,18,0.00,,,-99.99,,2013-04-04 23:42:00,
2013-04-04 17:52:00,67.0,22.0,30.01,East,90,9.0,16.0,18,0.00,,,-99.99,,2013-04-04 23:52:00,
2013-04-04 18:02:00,67.0,23.0,30.01,SE,126,6.0,14.0,19,0.00,,,-99.99,,2013-04-05 00:02:00,
2013-04-04 18:12:00,66.0,22.0,30.01,East,92,13.0,14.0,18,0.00,,,-99.99,,2013-04-05 00:12:00,
2013-04-04 18:22:00,66.0,23.0,30.01,ESE,112,7.0,14.0,19,0.00,,,-99.99,,2013-04-05 00:22:00,
2013-04-04 18:32:00,66.0,22.0,30.03,ESE,123,3.0,12.0,19,0.00,,,-99.99,,2013-04-05 00:32:00,
2013-04-04 18:42:00,65.0,24.0,30.03,ESE,107,9.0,14.0,21,0.00,,,-99.99,,2013-04-05 00:42:00,
2013-04-04 18:52:00,64.0,23.0,30.03,East,99,8.0,16.0,20,0.00,,,-99.99,,2013-04-05 00:52:00,
2013-04-04 19:02:00,64.0,22.0,30.03,ESE,116,8.0,14.0,20,0.00,,,-99.99,,2013-04-05 01:02:00,
2013-04-04 19:12:00,63.0,23.0,30.01,East,101,10.0,15.0,21,0.00,,,-99.99,,2013-04-05 01:12:00,
2013-04-04 19:22:00,63.0,22.0,30.03,ESE,108,6.0,15.0,21,0.00,,,-99.99,,2013-04-05 01:22:00,
2013-04-04 19:32:00,63.0,22.0,30.01,East,98,7.0,13.0,21,0.00,,,-99.99,,2013-04-05 01:32:00,
2013-04-04 19:42:00,62.0,23.0,30.03,SE,138,3.0,12.0,22,0.00,,,-99.99,,2013-04-05 01:42:00,
2013-04-04 19:52:00,61.0,23.0,30.03,East,94,8.0,13.0,23,0.00,,,-99.99,,2013-04-05 01:52:00,
2013-04-04 20:03:00,61.0,24.0,30.03,East,100,9.0,16.0,24,0.00,,,-99.99,,2013-04-05 02:03:00,
2013-04-04 20:12:00,60.0,24.0,30.03,ESE,109,6.0,12.0,25,0.00,,,-99.99,,2013-04-05 02:12:00,
2013-04-04 20:22:00,60.0,24.0,30.03,ESE,112,8.0,11.0,25,0.00,,,-99.99,,2013-04-05 02:22:00,
2013-04-04 20:32:00,59.0,24.0,30.03,ESE,105,4.0,9.0,26,0.00,,,-99.99,,2013-04-05 02:32:00,
2013-04-04 20:42:00,58.0,25.0,30.03,SE,124,4.0,9.0,27,0.00,,,-99.99,,2013-04-05 02:42:00,
2013-04-04 20:52:00,59.0,24.0,30.03,SE,128,2.0,11.0,27,0.00,,,-99.99,,2013-04-05 02:52:00,
2013-04-04 21:02:00,58.0,24.0,30.03,East,98,4.0,13.0,27,0.00,,,-99.99,,2013-04-05 03:02:00,
2013-04-04 21:12:00,58.0,25.0,30.03,East,101,4.0,10.0,28,0.00,,,-99.99,,2013-04-05 03:12:00,
2013-04-04 21:22:00,57.0,26.0,30.04,ESE,108,3.0,6.0,30,0.00,,,-99.99,,2013-04-05 03:22:00,
2013-04-04 21:32:00,57.0,24.0,30.03,SE,130,5.0,5.0,28,0.00,,,-99.99,,2013-04-05 03:32:00,
2013-04-04 21:43:00,57.0,25.0,30.03,SSE,155,3.0,5.0,28,0.00,,,-99.99,,2013-04-05 03:43:00,
2013-04-04 21:53:00,57.0,25.0,30.03,ESE,123,5.0,7.0,29,0.00,,,-99.99,,2013-04-05 03:53:00,
2013-04-04 22:02:00,57.0,25.0,30.03,SE,132,1.0,6.0,29,0.00,,,-99.99,,2013-04-05 04:02:00,
2013-04-04 22:12:00,56.0,25.0,30.03,SE,125,5.0,7.0,30,0.00,,,-99.99,,2013-04-05 04:12:00,
2013-04-04 22:22:00,56.0,25.0,30.03,SE,132,5.0,10.0,29,0.00,,,-99.99,,2013-04-05 04:22:00,
2013-04-04 22:32:00,56.0,24.0,30.03,ESE,110,6.0,8.0,29,0.00,,,-99.99,,2013-04-05 04:32:00,
2013-04-04 22:42:00,56.0,24.0,30.03,SE,128,2.0,7.0,30,0.00,,,-99.99,,2013-04-05 04:42:00,
2013-04-04 22:52:00,55.0,25.0,30.01,SE,130,5.0,6.0,30,0.00,,,-99.99,,2013-04-05 04:52:00,
2013-04-04 23:02:00,55.0,25.0,30.01,SSE,151,6.0,6.0,31,0.00,,,-99.99,,2013-04-05 05:02:00,
2013-04-04 23:12:00,55.0,24.0,30.01,South,177,5.0,7.0,30,0.00,,,-99.99,,2013-04-05 05:12:00,
2013-04-04 23:22:00,54.0,25.0,30.01,SSE,161,4.0,7.0,31,0.00,,,-99.99,,2013-04-05 05:22:00,
2013-04-04 23:32:00,55.0,24.0,30.01,South,179,6.0,7.0,31,0.00,,,-99.99,,2013-04-05 05:32:00,
2013-04-04 23:42:00,54.0,25.0,30.01,South,172,9.0,11.0,31,0.00,,,-99.99,,2013-04-05 05:42:00,
2013-04-04 23:52:00,54.0,26.0,30.01,SSW,204,7.0,15.0,33,0.00,,,-99.99,,2013-04-05 05:52:00,